Regional Weather Roundup
Issued by NWS Pendleton, OR

Current Version | Previous Version | Text Only | Print | Product List | Glossary On
Versions: 1 2 3 4 5 6 7 8 9 10 11 12 13 14 15 16 17 18 19 20 21 22 23 24 25 26 27 28 29 30 31 32 33 34 35 36 37 38 39 40 41 42 43 44 45 46 47 48 49 50
000
ASUS46 KPDT 250025
RWRPDT
PENDLETON REGIONAL WEATHER ROUNDUP
NATIONAL WEATHER SERVICE PENDLETON OREGON
500 PM PDT SAT SEP 24 2016

NOTE: FAIR INDICATES FEW OR NO CLOUDS BELOW 12,000 FEET WITH NO
SIGNIFICANT WEATHER AND/OR OBSTRUCTIONS TO VISIBILITY.

# INDICATES UNOFFICIAL STATION AND DATA

WAZ520-250110-
EAST SLOPES OF WASHINGTON CASCADES

CITY            SKY/WX      TMP DP  RH  WIND    PRES   REMARKS
#BULLFROG       N/A         55  N/A N/A NW3     N/A
#BUMPING DAM    N/A         55  32  41  CALM    N/A
#CLE ELUM HS    N/A         64  40  41  W5      30.22
#CLE ELUM 2NW   N/A         63  35  35  SW5     N/A
#CLE ELUM LAKE  N/A         64  35  34  CALM    30.26S
#CLIFFDEL 2NW   N/A         55  N/A N/A SE3     N/A
#EASTON DOT     N/A         55  86  100 W5      N/A
#ELK HTS DOT    N/A         55  140 100 CALM    N/A
#GLENWOOD       N/A         67  43  42  S3      30.29
#MANASTASH CYN  N/A         62  38  41  NW1     30.26S
#NELSON 3SW     N/A         58  43  57  CALM    30.47
#NILE           N/A         66  37  34  CALM    29.52S
#PEOH POINT     N/A         55  50  83  CALM    N/A
#RONALD 2NW     N/A         63  N/A N/A SW1     30.32R
#SOUTH BLEWITT  N/A         55  86  100 W2      N/A
#TEANAWAY 4NE   N/A         66  43  43  W5      N/A
#TROUT LAKE 1NE N/A         68  48  49  W7      30.27
#TROUT LAKE 1E  N/A         68  43  40  CALM    30.24
$$

WAZ521-250110-
SIMCOE HIGHLANDS

CITY            SKY/WX      TMP DP  RH  WIND    PRES   REMARKS
#SATUS PASS DOT N/A         55  140 100 W2      N/A
#CENTERVILLE 1SWN/A         68  37  32  SW1     30.25
#GOLDENDALE     N/A         55  32  41  NW2     N/A
#GOLDENDALE 1NE N/A         68  25  20  S3      N/A
#GOLDENDALE 4W  N/A         71  42  35  W6      30.31S
#GOODNOE HILLS  N/A         72  38  29  W10     N/A
#LYLE 6NE       N/A         69  39  33  SW7     30.25
$$

WAZ026-250110-
KITTITAS VALLEY

CITY            SKY/WX      TMP DP  RH  WIND    PRES   REMARKS
ELLENSBURG AP   SUNNY       72  34  25  S7      30.28
6HR MIN TEMP:   65; 6HR MAX TEMP:   73; 6HR PCP:  TRACE;

#ELLENSBURG CWU N/A         69  36  30  SE6     30.20
#ELLENSBURG 3NE N/A         68  39  35  CALM    30.25F
#ELLENSBURG     N/A         73  38  28  E1      N/A
#ELLENSBURG 1E  N/A         68  N/A N/A CALM    N/A
#KITTITAS 4N    N/A         67  40  37  E1      30.26F
#KITTITAS 3S    N/A         68  43  40  CALM    30.24
#MANASTASH RDG  N/A         55  140 100 SW6     N/A
#ROCKY CYN DOT  N/A         55  N/A N/A CALM    N/A
#RYEGRASS DOT   N/A         55  140 100 SW6     N/A
#THORP 6N       N/A         66  36  33  W7      30.29
$$

WAZ027-250110-
YAKIMA VALLEY

CITY            SKY/WX      TMP DP  RH  WIND    PRES   REMARKS
SUNNYSIDE AP    SUNNY       68  44  42  CALM    30.27S
YAKIMA AIRPORT  SUNNY       72  36  27  SE5     30.28
6HR MIN TEMP:   65; 6HR MAX TEMP:   74;

YAKIMA-VAGABOND MOCLDY      70  34  26  S2      30.26
6HR MIN TEMP:   62; 6HR MAX TEMP:   71;

#DONALD 2NE     N/A         73   3   6  SE3     29.11S
#GRANDVIEW      N/A         70  38  31  SE1     30.28S
#MABTON         N/A         72  46  39  SE3     30.27
#NACHES 2SW     N/A         71  43  36  CALM    30.30S
#OUTLOOK DOT    N/A         55  14  19  NW3     N/A
#SELAH 8E       N/A          7  -1  69  CALM    N/A
#TERRACE HTS    N/A         68  39  35  CALM    30.23
#TOPPENISH      N/A         70  39  32  E5      30.17
#I82 S UMTANUM RN/A         55  N/A N/A W3      N/A
#UNION GAP DOT  N/A         55  N/A N/A NW3     N/A
#WEST VALLEY    N/A         69  39  33  SE1     30.24
#WHITE SWAN 5E  N/A         70  43  38  CALM    30.26R
#WILEY CITY 3W  N/A         69  29  22  CALM    30.25S
#ZILLAH DOT     N/A         55  14  19  NW3     N/A
$$

WAZ028-250110-
LOWER COLUMBIA BASIN...WASHINGTON

CITY            SKY/WX      TMP DP  RH  WIND    PRES   REMARKS
PASCO           SUNNY       73  37  27  S6      30.29
6HR MIN TEMP:   66; 6HR MAX TEMP:   74;

PROSSER AWOS    N/A         72  39  30  S5      30.30S
RICHLAND AWOS   SUNNY       74  39  28  E7      30.28S
#BENTON CITY    N/A         72  42  34  CALM    30.18
#CONNELL 5N     N/A         71  42  35  SW1     30.29
#CONNELL 5NW    N/A         69  42  37  SW1     30.25
#ELTOPIA 6NW    N/A         68  42  39  CALM    29.26
#KAHLOTUS       N/A         68  40  36  NW10    30.28
#KENNEWICK 3S   N/A         71  42  35  CALM    30.28S
#PATERSON       N/A         71  40  32  SW1     30.26
#PROSSER DOT    N/A         55  140 100 NW3     N/A
#SAGEMOOR 2W    N/A         70  40  34  SE1     30.13
#TOUCHET 2S     N/A         72  44  37  N1      30.25
#WEST PASCO     N/A         71  45  39  CALM    30.29S
$$

WAZ029-250110-
FOOTHILLS OF THE BLUES...WASHINGTON

CITY            SKY/WX      TMP DP  RH  WIND    PRES   REMARKS
WALLA WALLA AP  SUNNY       68  37  32  SW5     30.29
6HR MIN TEMP:   61; 6HR MAX TEMP:   69;

#CLYDE 6NW      N/A         67  39  36  W1      30.27
#DAYTON SCHOOL  N/A         67  36  32  NE2     30.29
#DELANEY DOT    N/A         55  86  100 NW2     N/A
#PLEASANT VIEW 1N/A         68  38  33  SE7     30.32
#PRESCOTT       N/A         70  42  36  CALM    30.27S
#WHITMAN COLLEGEN/A         68  42  39  W1      30.33R
#WAITSBURG 5S   N/A         68  40  36  W1      30.37
#WHITMAN MISSIONN/A         71  43  36  CALM    30.28
$$

WAZ030-250110-
BLUE MOUNTAINS...WASHINGTON

CITY            SKY/WX      TMP DP  RH  WIND    PRES   REMARKS
#DIXIE 5SE      N/A         60  40  47  W6      30.25
$$

ORZ009-041-WAZ024-250110-
COLUMBIA RIVER GORGE

CITY            SKY/WX      TMP DP  RH  WIND    PRES   REMARKS
THE DALLES AP   SUNNY       75  31  20  N3      30.27
6HR MIN TEMP:   64; 6HR MAX TEMP:   76;

#ARLINGTON AIRPON/A         71  38  30  NW1     30.28S
#CELILO DOT     N/A         70  39  32  CALM    N/A
#MARYHILL       N/A         55  140 100 CALM    N/A
#MARYHILL 2W    N/A         N/A N/A N/A CALM    N/A
#MOSIER 1S      N/A         71  32  24  NW5     30.27S
#MURDOCK        N/A         73  43  34  W3      30.23S
#RUFUS DOT      N/A         75  36  24  W5      N/A
#SMITHVILLE     N/A         74  40  29  W3      30.20S

$$

ORZ510-250110-
NORTH CENTRAL OREGON

CITY            SKY/WX      TMP DP  RH  WIND    PRES   REMARKS
#ANTELOPE       N/A         68  35  29  CALM    30.16
#COW CYN RST AREN/A         66  N/A N/A E2      N/A
#DUFUR 9E       N/A         65  34  31  NW1     30.34
#GRASS VALLEY 1SN/A         69  30  23  W2      30.24S
#KENT DOT       N/A         69  21  16  N3      N/A
#SHANIKO 5WSW   N/A         66  24  20  N3      N/A
#TYGH VALLEY 2NEN/A         72  37  28  N2      30.26
#WAPANITIA AIRPON/A         71  36  28  CALM    30.29S
#WASCO DOT      N/A         72  37  28  W6      N/A
#WASCO 5NE      N/A         70  39  32  CALM    30.27
$$

ORZ511-250110-
CENTRAL OREGON

CITY            SKY/WX      TMP DP  RH  WIND    PRES   REMARKS
BEND AIRPORT    SUNNY       68  23  18  CALM    30.33R
MADRAS AIRPORT  SUNNY       73  27  18  N5      30.34
PRINEVILLE AP   SUNNY       70  23  17  W9      30.33S
REDMOND AIRPORT SUNNY       71  16  12  CALM    30.32
6HR MIN TEMP:   58; 6HR MAX TEMP:   72;

#ASHWOOD SCHOOL N/A         69  24  18  N1      30.24
#BEND 1SW       N/A         66  33  29  E1      N/A
#CULVER         N/A         68  28  22  NE1     30.22
#CULVER 8W      N/A         68  26  20  CALM    30.29R
#LAKE BILLY CHINN/A         68  N/A N/A E3      30.31R
#MADRAS         N/A         55  32  41  W7      N/A
#MADRAS 4S      N/A         68  15  13  NW6     30.36F
#POWELL BUTTE 3EN/A         68  28  22  NW6     N/A
#POWELL BUTTE   N/A         66  35  32  NW1     30.27S
#PRINEVILLE 3N  N/A         69  26  20  W3      30.29S

$$


ORZ509-250110-
EAST SLOPES OF OREGON CASCADES

CITY            SKY/WX      TMP DP  RH  WIND    PRES   REMARKS
#BLUE BOX PASS  N/A         61  N/A N/A NW3     N/A
#CAMP SHERMAN   N/A         71  33  25  CALM    30.31S
#LA PINE 4NW    N/A         71  30  22  CALM    30.35
#LAVA BUTTE DOT N/A         69  23  17  CALM    N/A
#SISTERS AIRPOR N/A         70  38  31  N5      30.17S
#SISTERS ODOT   N/A         70  N/A N/A NW3     N/A
#SISTERS 3N     N/A         68  32  26  E6      30.29S
#SUNRIVER       N/A         69  31  24  E1      30.34S
#SUTTLE LK DOT  N/A         65  42  43  W3      N/A
#TUMALO 3W      N/A         68  30  24  E2      30.17
#WANOGA BUTTE D N/A         61  24  24  NE2     N/A

$$

ORZ044-250110-
LOWER COLUMBIA BASIN...OREGON

CITY            SKY/WX      TMP DP  RH  WIND    PRES   REMARKS
HERMISTON       SUNNY       71  38  30  NW6     30.28
6HR MIN TEMP:   64; 6HR MAX TEMP:   73;

#BOARDMAN SCHOOLN/A         70  40  34  CALM    30.26F
#BOARDMAN 8SW   N/A         72  39  30  W1      30.26F
#I-84 EX 198 DOTN/A         68  44  42  E7      N/A
#IRRIGON 4NW    N/A         55  50  83  CALM    N/A
#UMATILLA       N/A         73  41  31  CALM    30.21
$$

ORZ507-250110-
NORTHERN FOOTHILLS OF THE BLUES

CITY            SKY/WX      TMP DP  RH  WIND    PRES   REMARKS
PENDLETON AIRPT SUNNY       68  36  31  W5      30.29
6HR MIN TEMP:   60; 6HR MAX TEMP:   69;

#ADAMS 3WNW     N/A         68  39  35  CALM    30.28S
#ATHENA         N/A         67  39  36  CALM    30.31
#CAYUSE         N/A         68  39  35  W1      30.27
#HELIX SCHOOL   N/A         68  39  35  CALM    30.28F
#HELIX 3N       N/A         65  37  35  N3      30.26
#HOLDMAN 5SE    N/A         68  41  37  W2      30.27S
#HOLDMAN 6E     N/A         67  39  36  E1      30.10
#M-F GROVE ELEM N/A         69  38  32  NW1     30.25S
#M-FREEWATER 5SEN/A         69  46  44  CALM    30.27
#PENDLETON DNTN N/A         70  38  31  CALM    30.27
#PDT AQUATIC CTRN/A         72  42  34  NW2     30.28S
#PDT SUNRIDGE   N/A         71  40  32  W1      30.29
#PENDLETON 7NW  N/A         67  45  45  W5      30.62
#PILOT ROCK 1S  N/A         67  37  33  CALM    30.28S
#PILOT ROCK     N/A         67  41  39  E1      30.30S
#TUTUILLA       N/A         68  39  35  CALM    30.28S
#UMAPINE 2E     N/A         71  43  36  NE1     30.25
#WESTON SCHOOL  N/A         65  34  31  CALM    30.11

$$

ORZ508-250110-
SOUTHERN FOOTHILLS OF THE BLUES

CITY            SKY/WX      TMP DP  RH  WIND    PRES   REMARKS
LEXINGTON       SUNNY       70  34  26  N5      30.33S
#AJAX           N/A         68  30  24  CALM    28.04S
#CONDON SCHOOL  N/A         66  27  23  SW1     30.25S
#CONDON 5W      N/A         65  26  23  W3      30.31R
#FOSSIL SCHOOL  N/A         68  35  29  CALM    30.24S
#HEPPNER EOC    N/A         70  35  28  NW2     30.21
#HEPPNER 4NE    N/A         63  33  32  W3      30.29S
#LEXINGTON 2SE  N/A         71  36  28  CALM    30.26S
#RUGGS 5NE      N/A         68  31  25  W5      30.49
#RUGGS 2SW      N/A         67  32  27  NW7     30.30

$$

ORZ502-503-250110-
BLUE MOUNTAINS

CITY            SKY/WX      TMP DP  RH  WIND    PRES   REMARKS
MEACHAM         SUNNY       59  29  32  VRB3    30.34
6HR MIN TEMP:   53; 6HR MAX TEMP:   61;

#BATTLE MTN DOT N/A         61  29  30  N3      N/A
#CUTSFORTH PARK N/A         57  37  47  CALM    30.11
#GREENHORN 9SW  N/A         65  28  25  W5      26.49S
#HARDMAN 10S    N/A         62  35  36  CALM    30.42
#HEPPNER 15SE   N/A         59  30  33  NW6     30.26R
#LADD CREEK ODOTN/A         64  34  33  NE7     N/A
#LONG CREEK HS  N/A         62  33  34  N3      30.34F
#N POWDER DOT   N/A         65  36  34  NE13    N/A
#PIKES PEAK     N/A         56  38  51  SW5     27.99
#TOLLGATE       N/A         52  40  63  W1      30.17
#TROY SCHOOL    N/A         72  41  33  CALM    30.06
#UKIAH          N/A         66  43  43  SW1     30.21S
#WESTON 4E      N/A         60  39  46  CALM    30.27
$$

ORZ505-250110-
JOHN DAY BASIN

CITY            SKY/WX      TMP DP  RH  WIND    PRES   REMARKS
JOHN DAY        SUNNY       67  33  28  W6      30.34S
#DAYVILLE SCHOOLN/A         72  36  27  CALM    30.24
#MITCHELL       N/A         69  40  35  CALM    30.45S
#MITCHELL 8NW   N/A         64  34  33  CALM    30.48
#MONUMENT HS    N/A         69  36  30  CALM    30.24F
#MT. VERNON 5SE N/A         64  34  33  CALM    30.30R
#SPRAY SCHOOL   N/A         75  N/A N/A CALM    N/A
$$

ORZ506-250110-
OCHOCO AND JOHN DAY HIGHLANDS

CITY            SKY/WX      TMP DP  RH  WIND    PRES   REMARKS
#BUCK CREEK DOT N/A         68  31  25  W7      N/A
#HORSE RIDGE DO N/A         66  23  19  N6      N/A
#KEYES SMT DOT  N/A         63  34  34  W6      N/A
#PAULINA SCHOOL N/A         69  24  18  SW3     N/A
#PINE MTN OBS   N/A         58  25  28  NW2     N/A
#PRAIRIE CITY   N/A         69  39  33  W2      30.47
#SENECA         N/A         62  N/A N/A N3      N/A
#SENECA 9NW     N/A         65  33  30  W1      30.30
$$

ORZ049-250110-
GRANDE RONDE VALLEY

CITY            SKY/WX      TMP DP  RH  WIND    PRES   REMARKS
LA GRANDE       SUNNY       66  30  26  N3      30.29S
#COVE SCHOOL    N/A         66  37  34  CALM    30.29
#COVE 6NW       N/A         66  36  33  CALM    30.18R
#ELGIN 3N       N/A         67  33  28  S3      30.24S
#ELGIN 1E       N/A         69  36  30  CALM    N/A
#IMBLER SCHOOL  N/A         66  36  33  CALM    30.23
#ISLAND CITY 4N N/A         68  53  59  CALM    30.32
#LADD CYN DOT   N/A         69  38  32  NE2     N/A
#LA GRANDE ELEM N/A         67  36  32  NW3     30.28F
#UNION 1S       N/A         67  36  32  N3      30.25F
$$

ORZ050-250110-
WALLOWA COUNTY

CITY            SKY/WX      TMP DP  RH  WIND    PRES   REMARKS
JOSEPH AIRPORT  SUNNY       61  27  27  NW5     30.34
#IMNAHA SCHOOL  N/A         66  38  36  N1      30.24S
#IMNAHA 10S     N/A         67  35  30  CALM    30.25S
#JOSEPH 3N      N/A         61  28  28  W3      30.31
#JOSEPH 3W      N/A         50  39  66  SW2     30.15F
#LOSTINE        N/A         64  34  33  N1      30.06
#LOSTINE 3SE    N/A         63  30  29  N1      30.27S
#MT HOWARD 8000 N/A         43  31  62  NW1     30.43S
#PROMISE 1S     N/A         61  36  39  N1      30.34
#WALLOWA SCHOOL N/A         67  35  30  CALM    30.23F



$$



USA.gov is the U.S. government's official web portal to all federal, state and local government web resources and services.